THORAD AGENA D DEB

Satellite information

Favourite Embed

Satellite Type and Status

DEBRISIN ORBIT

Key statistics

Satellite THORAD AGENA D DEB at a glance.

Uptime

20178

Days in orbit

Revolutions

≈ 14.1

Per day

Orbit

SSO

Sun Synchronous Orbit

Inclination

99.2

Latest

Satellite identification and parameters

Extended collection of information and parameters for THORAD AGENA D DEB.

Object identification

Identified? True

Debris? True

Object name: THORAD AGENA D DEB

International designator: 1970-025TG

Object number (NORAD): 42550

Object ID (CCSDS): 42550

Country: UNITED STATES OF AMERICA (US)

Current information (Y/N): Y

RCS size: SMALL

Orbital parameters

Period: 101.879 minutes

Inclination: 99.2389 deg

SMA: 7225.758 km

Apoapsis: 863.485 km

Periapsis: 831.761 km

RAAN: 114.9286 deg

Eccentricy: 0.0021952

Argument of periapsis: 140.3409 deg

Mean anomaly: 280.8365 deg

Mean motion: 14.13440884 rev/day

Mean motion (dot): 0.0000066 rev/day2

B* drag term: 0.00037525 1/REarth

Two-line elements (TLE)

Creation date: July 3, 2025, 5:26 p.m.

Reference frame: TEME

Reference center: EARTH

Epoch: July 3, 2025, 1:17 a.m. UTC

TLE line 0: 0 THORAD AGENA D DEB

TLE line 1: 1 42550U 70025TG 25184.05407471 .00000660 00000-0 37525-3 0 9995

TLE line 2: 2 42550 99.2389 114.9286 0021952 140.3409 280.8365 14.13440884597403

Live tracking on map

Real-time ground track for satellite THORAD AGENA D DEB.

In-orbit conjunctions

A list of the most updated potential collisions computed for object THORAD AGENA D DEB.

Target Orbit TCA Probability of collision Miss distance Type
METEOR 1-27 LEO 2024-10-02 12:59:56 0.0001424952 353.0 (m) PAYLOAD
SL-16 DEB LEO 2024-09-25 22:17:31 0.0005774565 20.0 (m) DEBRIS

Associated space launch

Meteorological research and development satellite

THORAD AGENA D DEB was lifted into orbit during the mission ‘Thorad SLV-2G Agena D | Nimbus 4’, on board a Thorad SLV-2G Agena D space rocket.

The launch took place on April 8, 1970, 8:17 a.m. from Space Launch Complex 2E.

For more information about the launch, click the button.

Launch to space Thorad SLV-2G Agena D | Nimbus 4
Thorad SLV-2G Agena D | Nimbus 4

Agency: N/A

Status: Launch Successful

Launch date: April 8, 1970, 8:17 a.m. UTC

Rocket: Thorad SLV-2G Agena D

Launch pad: Space Launch Complex 2E

Location: Vandenberg SFB, CA, USA

...

Latest news about this satellite

There are no fresh news available about this satellite. Check back as we update our databases every day.


Newsletter sign-up

Weekly statistics, charts and insights to help you stay on top of the space industry.